Weather in Ostrovets

Belarus     54˚36′55″N   25˚57′30″E
temp.,
°C
wind,
m/s
gust,
m/s
humid.,
%
clouds,
%
prec.,
mm/h
press.,
hPa
HPBL,
m
28 november, sat
sat2800:00nnw3685100 0.0 1015514
03:00−2˚nnw279479 0.0 1016311
06:00−1˚nnw268983 0.0 1017354
09:00−1˚nnw369486 0.2 1018405
12:00nnw369296 0.4 1018410
15:00n469698 1.3 1018343
18:00nne4798100 1.1 1019303
21:00ese5795100 1.9 1020465
29 november, sun
sun2900:00−2˚ene368987 0.0 1021187
03:00−1˚ne369675 0.1 1021315
06:00ene4798100 0.6 1021439
09:00ne5795100 1.0 1021530
12:00ne5896100 0.3 1021528
15:00nne4795100 0.6 1020491
18:00−1˚nne3698100 0.5 1020282
21:00−2˚n249899 0.8 1020186
30 november, mon
mon3000:00−2˚n1298100 0.1 102177
03:00−2˚nnw009791 0.2 102121
06:00−3˚wsw119773 0.1 102121
09:00−2˚wsw119779 0.1 102224
12:00−2˚wsw239443 0.0 1023210
15:00−1˚wsw348958 0.1 1023500
18:00−1˚sw3591100 0.1 1024399
21:00−3˚sw369394 0.2 1025210
1 december, tue
tue100:00−3˚sw499487 0.1 1025374
03:00−2˚sw489487 0.1 1025481
06:00−4˚ssw489568 0.0 1026237
09:00−4˚ssw489434 0.0 1027243
12:00−2˚ssw48891 0.0 1027466
15:00−2˚ssw368627 0.0 1028628
18:00−3˚s369090 0.0 1028231
21:00−4˚sse359376 0.0 1029133
2 december, wed
wed200:00−5˚sse269412 0.0 1030187
03:00−5˚sse239512 0.0 103077
06:00−5˚sse23950 0.0 103075
09:00−5˚sse23962 0.0 103072
12:00−3˚sse25900 0.0 1030238
15:00−3˚sse24897 0.0 1028254
18:00−5˚se239116 0.0 102840
21:00−5˚se238914 0.0 102848